Tracking 19730 objects as of 27-Jun-2019
HD Live streaming from Space Station
objects crossing your sky now

COSMOS 1375 DEB

Track COSMOS 1375 DEB now!
10-day predictions


NORAD ID: 16203
Int'l Code: 1982-055E
Perigee: 887.3 km
Apogee: 991.6 km
Inclination: 65.8 °
Period: 103.7 minutes
Semi major axis: 7310 km
RCS: 0.1211 m2 (medium)
Launch date: June 6, 1982
Source: Commonwealth of Independent States (former USSR) (CIS)
Launch site: PLESETSK MISSILE AND SPACE COMPLEX (PKMTR)

Note: This is SATELLITE DEBRIS
aabbcc
Your satellite tracking list
Your tracking list is empty




NASA's NSSDC Master Catalog

Two Line Element Set (TLE):
1 16203U 82055E   19178.21738543 -.00000056  00000-0  22224-4 0  9999
2 16203  65.8334 217.9903 0071323 205.4603 215.1532 13.88945399877235
Source of the keplerian elements: AFSPC